Track STARLINK-4279 now! 10-day predictions STARLINK-4279 is classified as:
1 53018U 22076AJ 22224.83335648 .00018878 00000-0 13837-3 0 9993 2 53018 53.2183 200.0008 0001852 21.7917 240.6130 15.73242938 6213